SL-14 DEB, 47080

Orbit data source: Space-Track

SL-14 DEB, 47080 is space debris in LEO originally from a launch on Thu, 15 Aug 1991 UTC launched from the Plesetsk Missile And Space Complex (PKMTR). Debris objects in space refer to the collection of defunct objects orbiting the Earth. Examples of debris include non-operational satellites, rocket bodies, and fragments generated from explosions, collisions, or faulty payload assembly.

Loading next visibility...
Identifier
47080, 1991-056DE
Orbit
LEO
Country
Flag of CISCIS
Related business
Manufacturer
Unknown
Mission
Spacecraft
Bus & Motor
Unknown
Mass
Unknown
Launch date (UTC)
1991-08-15 (34 years ago)
Launch vehicle
Unknown
Launch site
Plesetsk Missile And Space Complex (PKMTR)
Object type
Payload
Rocket body
Debris
Shape & HBR
Unknown shape, 0.1 m
Radar Cross Section
Small (<0.1 m²)

Expand to show TLE details & history
Last TLE update: 5 days ago

TLE from 5 days ago
0 SL-14 DEB
1 47080U 91056DE  25305.29632100  .00019437  00000-0  11689-1 0  9998
2 47080  82.5157 149.2741 0133678  94.8437 266.8012 14.02322285249953
Epoch: 2025-11-01T07:06Z
TLE epoch observation values (Epoch: 2025-11-01T07:06:42.134Z)
Latitude
0.00003°
Longitude
1.77011°
Altitude
895.404 km
Speed
7.401 km/s
True Right ascension
09h 57m 05s
True Declination
0° 00' 00"
Sunlit
Object was in daylight at epoch
Visualization orbit readout
Latitude
Unknown
Longitude
Unknown
Altitude
Unknown
Speed
Unknown
Apparent Right ascension
Unknown
Apparent Declination
Unknown
Sunlit
N/A
Visualization observer readout
Local Sidereal Time
11:41:07
Azimuth
Unknown
Elevation
Unknown
Doppler factor
Unknown
Orbital elements
Apogee altitude
979.956 km
Perigee altitude
785.828 km
Semi-major axis
7,261.029 km
Eccentricity
0.01337
Inclination
82.5157°
RAAN
149.2741°
Arg. of periapsis
94.8437°
True anomaly
265.27336°
Mean anomaly
266.8012°
Eccentric anomaly
266.03711°
Mean motion
3.50789 °/min
Orbital period
102.63 mins
BSTAR
0.011689
Loading maneuver chart data...
Computing Atmospheric mass density...
Loading historical data...
Loading historical data...
Loading historical data...
Loading historical data...
Loading historical data...
Loading historical data...
Loading historical data...

Documentation

Showing up to 5 results
|